TimePDT,TemperatureF,Dew PointF,Humidity,Sea Level PressureIn,VisibilityMPH,Wind Direction,Wind SpeedMPH,Gust SpeedMPH,PrecipitationIn,Events,Conditions,WindDirDegrees,DateUTC
12:53 AM,53.1,48.9,86,29.94,10.0,SW,8.1,-,0.04,Rain,Light Rain,220,2012-10-23 07:53:00
1:53 AM,53.1,50.0,89,29.96,10.0,SW,6.9,-,0.02,Rain,Light Rain,220,2012-10-23 08:53:00
2:53 AM,52.0,50.0,93,29.97,10.0,WSW,4.6,-,0.01,Rain,Light Rain,250,2012-10-23 09:53:00
3:41 AM,51.8,50.0,94,29.97,10.0,Calm,Calm,-,0.00,,Mostly Cloudy,0,2012-10-23 10:41:00
3:53 AM,52.0,50.0,93,29.97,10.0,Calm,Calm,-,0.00,,Mostly Cloudy,0,2012-10-23 10:53:00
4:53 AM,52.0,50.0,93,29.97,10.0,ENE,4.6,-,N/A,,Mostly Cloudy,60,2012-10-23 11:53:00
5:23 AM,51.8,48.2,88,29.99,10.0,Calm,Calm,-,N/A,,Scattered Clouds,0,2012-10-23 12:23:00
6:53 AM,52.0,48.9,89,30.01,10.0,Calm,Calm,-,N/A,,Clear,0,2012-10-23 13:53:00
7:53 AM,52.0,50.0,93,30.01,10.0,Calm,Calm,-,N/A,,Clear,0,2012-10-23 14:53:00
8:53 AM,53.1,48.9,86,30.04,10.0,Calm,Calm,-,N/A,,Clear,0,2012-10-23 15:53:00
10:53 AM,55.9,44.1,64,30.05,10.0,Calm,Calm,-,N/A,,Scattered Clouds,0,2012-10-23 17:53:00
11:53 AM,60.1,44.1,55,30.04,10.0,NW,5.8,-,N/A,,Mostly Cloudy,310,2012-10-23 18:53:00
12:53 PM,59.0,44.1,58,30.03,10.0,Calm,Calm,-,N/A,,Mostly Cloudy,0,2012-10-23 19:53:00
1:53 PM,61.0,43.0,52,30.02,10.0,SW,5.8,-,N/A,,Scattered Clouds,220,2012-10-23 20:53:00
2:53 PM,62.1,37.9,41,30.00,10.0,SSW,6.9,-,N/A,,Scattered Clouds,210,2012-10-23 21:53:00
3:53 PM,63.0,37.0,38,29.99,10.0,WSW,9.2,-,N/A,,Partly Cloudy,250,2012-10-23 22:53:00
4:53 PM,63.0,37.9,40,29.99,10.0,West,9.2,-,N/A,,Clear,270,2012-10-23 23:53:00
5:53 PM,60.1,39.0,46,29.99,10.0,West,10.4,-,N/A,,Clear,270,2012-10-24 00:53:00
6:53 PM,57.0,42.1,57,30.00,10.0,WNW,9.2,-,N/A,,Clear,290,2012-10-24 01:53:00
7:53 PM,55.0,42.1,62,30.02,10.0,Calm,Calm,-,N/A,,Clear,0,2012-10-24 02:53:00
8:53 PM,53.1,43.0,69,30.02,10.0,Calm,Calm,-,N/A,,Clear,0,2012-10-24 03:53:00
9:53 PM,51.1,43.0,74,30.02,10.0,SSE,3.5,-,N/A,,Clear,160,2012-10-24 04:53:00
11:53 PM,46.9,43.0,86,30.03,10.0,ENE,3.5,-,N/A,,Clear,60,2012-10-24 06:53:00